THY4EF DGAA-LTFM

Flight info

Callsign THY4EF
Flight time N/A
Altitude 35000
Route LITEX1D LITEX UA603 TAMIL UG855 NY DCT DAMNA UQ594 OSLEK UT258 ERKEL/N0492F360 UR978 BERTI/N0487F370 UB727 IMN M600 ZAW/N0478F380 M600 SARKI/N0480F370 DCT VESOD/N0478F380 DCT INROF DCT RUTOM/N0479F370 DCT ELPIS DCT PEREN UN644 DIGTI UT162 DRAMO
Aircraft B77W/H-SDE1E2E3FGHIJ2J3J4J5M1RWXY/LB1D1

Departure

Time N/A
Airport Kotoka International Airport (DGAA)

Arrival

Time 2026-05-06 14:32
Airport İstanbul Airport (LTFM)
Time Latitude Longitude Altitude Speed Heading
2026-05-06 13:58 40.75278 24.63924 37048 ft 495 kts 69°
2026-05-06 13:59 40.76928 24.71156 37048 ft 495 kts 69°
2026-05-06 13:59 40.79238 24.81279 37048 ft 494 kts 69°
2026-05-06 14:00 40.80884 24.88506 37048 ft 493 kts 69°
2026-05-06 14:00 40.82853 24.97190 37053 ft 493 kts 69°
2026-05-06 14:01 40.84820 25.05898 37063 ft 493 kts 69°
2026-05-06 14:01 40.86777 25.14600 37056 ft 494 kts 69°
2026-05-06 14:02 40.88605 25.22755 37049 ft 494 kts 69°
2026-05-06 14:02 40.90553 25.31478 37055 ft 494 kts 69°
2026-05-06 14:03 40.92494 25.40196 37062 ft 493 kts 68°
2026-05-06 14:03 40.94414 25.48847 37062 ft 492 kts 68°
2026-05-06 14:04 40.96337 25.57549 37045 ft 491 kts 69°
2026-05-06 14:04 40.98236 25.66178 37062 ft 490 kts 68°
2026-05-06 14:05 41.00141 25.74867 37048 ft 490 kts 68°
2026-05-06 14:05 41.02032 25.83537 37045 ft 488 kts 68°
2026-05-06 14:06 41.02964 25.87808 36744 ft 492 kts 68°
2026-05-06 14:06 41.03894 25.92233 36057 ft 495 kts 71°
2026-05-06 14:06 41.04860 26.01193 36147 ft 495 kts 81°
2026-05-06 14:07 41.04901 26.05785 35994 ft 499 kts 86°
2026-05-06 14:07 41.04805 26.10410 35608 ft 503 kts 86°
2026-05-06 14:07 41.04677 26.15008 35179 ft 507 kts 87°
2026-05-06 14:07 41.04540 26.19698 34745 ft 509 kts 86°
2026-05-06 14:08 41.04407 26.24408 34157 ft 513 kts 86°
2026-05-06 14:08 41.04283 26.29143 33142 ft 516 kts 86°
2026-05-06 14:08 41.04164 26.33914 32109 ft 517 kts 86°
2026-05-06 14:08 41.04049 26.38673 31097 ft 518 kts 87°
2026-05-06 14:09 41.03934 26.43439 30378 ft 513 kts 87°
2026-05-06 14:09 41.03819 26.48079 29651 ft 507 kts 87°
2026-05-06 14:09 41.03703 26.52716 28919 ft 501 kts 87°
2026-05-06 14:09 41.03587 26.57305 28275 ft 494 kts 87°
2026-05-06 14:10 41.03471 26.61836 27621 ft 488 kts 88°
2026-05-06 14:10 41.03355 26.66302 26971 ft 483 kts 88°
2026-05-06 14:10 41.03239 26.70732 26338 ft 478 kts 88°
2026-05-06 14:10 41.03124 26.75067 25724 ft 473 kts 88°
2026-05-06 14:11 41.03006 26.79407 25105 ft 469 kts 88°
2026-05-06 14:11 41.02889 26.83708 24496 ft 465 kts 88°
2026-05-06 14:11 41.02770 26.87972 23912 ft 461 kts 88°
2026-05-06 14:11 41.02650 26.92227 23213 ft 459 kts 88°
2026-05-06 14:12 41.02532 26.96374 22549 ft 454 kts 88°
2026-05-06 14:12 41.02412 27.00542 21935 ft 449 kts 88°
2026-05-06 14:12 41.02292 27.04656 21339 ft 445 kts 88°
2026-05-06 14:12 41.02171 27.08733 20743 ft 440 kts 89°
2026-05-06 14:13 41.02050 27.12750 20177 ft 436 kts 89°
2026-05-06 14:13 41.01929 27.16724 19598 ft 432 kts 89°
2026-05-06 14:13 41.01809 27.20680 19035 ft 428 kts 89°
2026-05-06 14:13 41.01688 27.24616 18468 ft 425 kts 89°
2026-05-06 14:14 41.01565 27.28518 17819 ft 422 kts 89°
2026-05-06 14:14 41.01441 27.32389 17207 ft 418 kts 89°
2026-05-06 14:14 41.01318 27.36220 16634 ft 414 kts 89°
2026-05-06 14:14 41.01194 27.40013 16060 ft 409 kts 89°
2026-05-06 14:15 41.01073 27.43712 15506 ft 405 kts 89°
2026-05-06 14:15 41.00951 27.47429 14960 ft 401 kts 89°
2026-05-06 14:15 41.00829 27.51104 14423 ft 398 kts 90°
2026-05-06 14:15 41.00707 27.54758 13867 ft 395 kts 90°
2026-05-06 14:16 41.00584 27.58380 13273 ft 392 kts 90°
2026-05-06 14:16 41.00461 27.61982 12683 ft 388 kts 90°
2026-05-06 14:16 41.00338 27.65497 12139 ft 385 kts 90°
2026-05-06 14:16 41.00216 27.69020 11600 ft 381 kts 89°
2026-05-06 14:17 41.00092 27.72527 11067 ft 378 kts 89°
2026-05-06 14:17 40.99969 27.75953 10824 ft 367 kts 89°
2026-05-06 14:17 40.99848 27.79227 10628 ft 339 kts 89°
2026-05-06 14:18 40.99627 27.85067 10350 ft 292 kts 89°
2026-05-06 14:18 40.99532 27.87714 10237 ft 283 kts 88°
2026-05-06 14:18 40.99440 27.90296 9988 ft 279 kts 88°
2026-05-06 14:18 40.99348 27.92877 9565 ft 282 kts 88°
2026-05-06 14:19 40.99255 27.95481 9134 ft 284 kts 89°
2026-05-06 14:19 40.99160 27.98086 8701 ft 288 kts 89°
2026-05-06 14:19 40.99062 28.00741 8308 ft 289 kts 89°
2026-05-06 14:19 40.98962 28.03437 7699 ft 298 kts 90°
2026-05-06 14:20 40.98857 28.06222 7127 ft 306 kts 90°
2026-05-06 14:20 40.98749 28.09056 6638 ft 310 kts 90°
2026-05-06 14:20 40.98637 28.11923 6139 ft 313 kts 90°
2026-05-06 14:20 40.98526 28.14751 5833 ft 309 kts 91°
2026-05-06 14:21 40.98415 28.17568 5524 ft 305 kts 91°
2026-05-06 14:21 40.98304 28.20372 5166 ft 304 kts 91°
2026-05-06 14:21 40.98193 28.23162 4965 ft 304 kts 91°
2026-05-06 14:21 40.98081 28.25981 4967 ft 305 kts 91°
2026-05-06 14:22 40.97970 28.28746 4958 ft 304 kts 91°
2026-05-06 14:22 40.97858 28.31542 4958 ft 303 kts 91°
2026-05-06 14:22 40.97745 28.34315 4959 ft 301 kts 91°
2026-05-06 14:22 40.97632 28.37087 4959 ft 300 kts 91°
2026-05-06 14:23 40.97536 28.39851 4957 ft 300 kts 89°
2026-05-06 14:23 40.97530 28.42610 4960 ft 300 kts 87°
2026-05-06 14:23 40.97549 28.45339 4964 ft 300 kts 87°
2026-05-06 14:23 40.97568 28.48101 4962 ft 299 kts 87°
2026-05-06 14:24 40.97582 28.50864 4960 ft 299 kts 87°
2026-05-06 14:24 40.97591 28.53572 4954 ft 295 kts 87°
2026-05-06 14:24 40.97596 28.56257 4943 ft 281 kts 87°
2026-05-06 14:24 40.97599 28.58775 4942 ft 267 kts 87°
2026-05-06 14:25 40.97602 28.61179 4958 ft 254 kts 87°
2026-05-06 14:25 40.97603 28.63437 4931 ft 242 kts 86°
2026-05-06 14:25 40.97605 28.65610 4967 ft 233 kts 87°
2026-05-06 14:25 40.97606 28.67756 5012 ft 234 kts 86°
2026-05-06 14:26 40.97624 28.69919 4973 ft 233 kts 81°
2026-05-06 14:26 40.98168 28.71850 4964 ft 221 kts 46°
2026-05-06 14:26 40.99392 28.72939 4966 ft 211 kts 11°
2026-05-06 14:26 41.00824 28.73192 4979 ft 212 kts
2026-05-06 14:27 41.02333 28.73284 4981 ft 222 kts 359°
2026-05-06 14:27 41.03894 28.73288 4655 ft 225 kts 358°
2026-05-06 14:27 41.05446 28.73259 4353 ft 226 kts 357°
2026-05-06 14:27 41.07015 28.73222 4072 ft 226 kts 358°
2026-05-06 14:28 41.08594 28.73185 3784 ft 227 kts 358°
2026-05-06 14:28 41.10166 28.73150 3489 ft 226 kts 358°
2026-05-06 14:28 41.11738 28.73109 3228 ft 225 kts 358°
2026-05-06 14:28 41.13304 28.73073 2925 ft 225 kts 359°
2026-05-06 14:29 41.14854 28.73039 2596 ft 217 kts 359°
2026-05-06 14:29 41.16288 28.73005 2326 ft 200 kts 359°
2026-05-06 14:29 41.17637 28.72973 2046 ft 186 kts 359°
2026-05-06 14:29 41.18921 28.72945 1811 ft 180 kts 359°
2026-05-06 14:30 41.20127 28.72917 1568 ft 164 kts 359°
2026-05-06 14:30 41.21250 28.72891 1365 ft 156 kts 359°
2026-05-06 14:30 41.22274 28.72867 1174 ft 142 kts
2026-05-06 14:30 41.23254 28.72846 885 ft 140 kts
2026-05-06 14:31 41.24200 28.72814 739 ft 134 kts
2026-05-06 14:31 41.25127 28.72797 626 ft 132 kts
2026-05-06 14:31 41.26036 28.72771 416 ft 130 kts
2026-05-06 14:31 41.26917 28.72764 352 ft 116 kts
2026-05-06 14:32 41.27574 28.72746 335 ft 70 kts 360°
2026-05-06 14:32 41.27908 28.72749 338 ft 38 kts
2026-05-06 14:32 41.28117 28.72881 335 ft 22 kts 48°
2026-05-06 14:32 41.28120 28.72942 335 ft 4 kts 141°
2026-05-06 14:33 41.28055 28.72966 335 ft 19 kts 176°
2026-05-06 14:33 41.27879 28.72950 336 ft 27 kts 187°
2026-05-06 14:33 41.27684 28.72966 338 ft 27 kts 176°
2026-05-06 14:33 41.27539 28.72974 335 ft 24 kts 178°
2026-05-06 14:34 41.27342 28.72979 334 ft 29 kts 179°
2026-05-06 14:34 41.27139 28.72983 334 ft 29 kts 181°
2026-05-06 14:34 41.26961 28.72986 335 ft 14 kts 179°
2026-05-06 14:34 41.26876 28.73022 336 ft 11 kts 118°
2026-05-06 14:35 41.26867 28.73161 336 ft 18 kts 88°
2026-05-06 14:35 41.26869 28.73336 335 ft 19 kts 89°
2026-05-06 14:35 41.26871 28.73511 335 ft 20 kts 89°
2026-05-06 14:35 41.26875 28.73730 335 ft 28 kts 88°
2026-05-06 14:36 41.26877 28.73938 336 ft 12 kts 90°
2026-05-06 14:36 41.26825 28.74019 334 ft 11 kts 150°
2026-05-06 14:36 41.26802 28.74078 335 ft 8 kts 98°
2026-05-06 14:36 41.26801 28.74112 335 ft 0 kts 91°
2026-05-06 14:37 41.26801 28.74121 335 ft 1 kts 90°